Content
SEND FEEDBACK

Daily
Averages
Monthly
Summary
United States of America

HAMILTON - SOUTH, COLORADO


Home > North America > United States > Colorado
Elevation: 6240 feet     Latitude: 40 22N     Longitude: 107 37W

WEATHER
 
SELECT A DAY
Number of Records: 204,866;   Date Range: 1/1/95 - 11/27/14
 
SHARE

PRINT THIS DATA

[ ← Previous Day ]
WEATHER ALMANAC - JANUARY 23, 2013
[ Next Day → ]
[ °C ]   °F
Weather ElementAverageHighLow
Temperature4.9 °F21.9 °F (2:53 pm)-11 °F (2:53 am)
Dewpoint-2.1 °F10.9 °F (3:53 pm)-17 °F (2:53 am)
Humidity73.3 %83 % (8:53 am)59 % (11:53 am)
Barometer30.67 in30.79 in (7:53 am)30.55 in (11:53 pm)
Wind Speed0.5 mph3.5 mph (1:53 pm)
Weather ElementAverage
Visibility10 mi
Wind DirectionNNE (28.7 °)

Weather ElementTotal
Precipitation---
Heating Degree Days59.6 (Base 65)
Averaged from 23 records on January 23, 2013
WEATHER CONDITIONS BREAKOUT
WIND DIRECTION BREAKOUT
WEATHER BY HOUR - JANUARY 23, 2013
[ °C ]   °F
Local TimeTemperatureDewpointHumidityBarometerVisibilityWind DirectionWind SpeedGust SpeedPrecipitationEventsConditions
1:53 AM-9.9 °F-15.0 °F78 %30.72 in10.0 miCalmClear
2:53 AM-11.0 °F-17.0 °F75 %30.72 in10.0 miCalmClear
3:53 AM-9.0 °F-14.1 °F79 %30.69 in10.0 miCalmClear
4:53 AM-9.0 °F-15.0 °F75 %30.71 in10.0 miCalmClear
5:53 AM-9.0 °F-15.0 °F75 %30.74 in10.0 miCalmClear
6:53 AM-11.0 °F-17.0 °F75 %30.78 in10.0 miCalmClear
7:53 AM-9.0 °F-14.1 °F79 %30.79 in10.0 miCalmClear
8:53 AM-5.1 °F-9.0 °F83 %30.76 in10.0 miCalmClear
9:53 AM5.0 °F0.0 °F80 %30.73 in10.0 miCalmClear
10:53 AM10.0 °F1.0 °F67 %30.72 in10.0 miCalmClear
11:53 AM15.1 °F3.0 °F59 %30.69 in10.0 miCalmClear
12:53 PM18.0 °F7.0 °F62 %30.64 in10.0 miCalmClear
1:53 PM19.9 °F8.1 °F60 %30.62 in10.0 miSE (140°)3.5 mphClear
2:53 PM21.9 °F10.0 °F60 %30.60 in10.0 miCalmClear
3:53 PM21.0 °F10.9 °F65 %30.59 in10.0 miCalmClear
4:53 PM16.0 °F9.0 °F74 %30.62 in10.0 miCalmClear
5:53 PM15.1 °F7.0 °F70 %30.64 in10.0 miCalmClear
6:53 PM10.9 °F5.0 °F77 %30.67 in10.0 miSouth (190°)3.5 mphClear
7:53 PM6.1 °F1.0 °F80 %30.68 in10.0 miNNW (330°)3.5 mphClear
8:53 PM6.1 °F1.0 °F80 %30.64 in10.0 miCalmClear
9:53 PM9.0 °F3.0 °F77 %30.58 in10.0 miCalmClear
10:53 PM6.1 °F1.0 °F80 %30.59 in10.0 miCalmClear
11:53 PM6.1 °F0.0 °F76 %30.55 in10.0 miCalmClear
Hourly data recorded from KCAG, located miles away from Hamilton - South, Colorado







STORIES FROM OUR PARTNERS